Regional Weather Roundup
Issued by NWS

Home | Current Version | Previous Version | Graphics & Text | Print | Product List | Glossary On
Versions: 1 2 3 4 5 6 7 8 9 10 11 12 13 14 15 16 17 18 19 20 21 22 23 24 25 26 27 28
000
ASUS45 KPSR 192310
RWRAZ

ARIZONA HOURLY REGIONAL WEATHER ROUNDUP
NATIONAL WEATHER SERVICE PHOENIX AZ
400 PM MST SAT AUG 19 2017

NOTE: FAIR INDICATES FEW OR NO CLOUDS BELOW 12,000 FEET WITH NO
SIGNIFICANT WEATHER AND/OR OBSTRUCTIONS TO VISIBILITY.

AZZ001>003-036-200000-
NORTHWEST ARIZONA

CITY           SKY/WX    TMP DP  RH WIND       PRES   REMARKS
BULLHEAD CITY  SUNNY    106  36   9 SE9G18    29.73F
KINGMAN        SUNNY     96  38  13 SW17      29.97F
$$

AZZ004>008-015-016-018-200000-
NORTH CENTRAL ARIZONA

CITY           SKY/WX    TMP DP  RH WIND       PRES   REMARKS
GRAND CANYON   MOSUNNY   85  35  16 SW14      30.21F
WILLIAMS       MOSUNNY   81  41  24 SW9G16    30.23F
PRESCOTT       MOSUNNY   86  45  23 W9        30.11F
FLAGSTAFF      MOSUNNY   79  40  24 S14G21    30.25F
PAYSON           N/A     88  37  16 SW7G20    30.11F
PAGE           SUNNY     99  34  10 MISG      29.95F
$$

AZZ009>014-017-200000-
NORTHEAST ARIZONA

CITY           SKY/WX    TMP DP  RH WIND       PRES   REMARKS
WINSLOW        MOSUNNY   91  36  14 VRB3      30.04F
SAINT JOHNS    MOSUNNY   91  35  13 VRB3      30.09F
WINDOW ROCK    PTSUNNY   86  29  12 CALM      30.17F
SHOW LOW       MOSUNNY   81  43  26 N10       30.17F
$$

AZZ540-542>544-546-548-200000-
GREATER PHOENIX AREA

CITY           SKY/WX    TMP DP  RH WIND       PRES   REMARKS
PHOENIX        PTSUNNY  103  48  15 NW7       29.78F
BUCKEYE        SUNNY    102  54  19 S7        29.80F HX 100
GLENDALE       MOSUNNY  104  43  12 S12G17    29.81F
LUKE AFB       SUNNY    102  48  15 W5        29.78F
DEER VALLEY    SUNNY    101  43  13 W10G17    29.81F
SCOTTSDALE     SUNNY    102  42  13 W7        29.83F
MESA-FALCON    MOSUNNY  100  66  32 W10       29.82F HX 104
MESA-GATEWAY   MOSUNNY  100  48  17 W6        29.82F
CHANDLER       SUNNY    102  45  14 W10       29.81F
$$

AZZ539-553-200000-
SOUTHWEST MARICOPA COUNTY AND PINAL COUNTY

CITY           SKY/WX    TMP DP  RH WIND       PRES   REMARKS
CASA GRANDE    MOSUNNY  100  50  18 NW12      29.83F
GILA BEND      FAIR     105  50  15 W9        29.76F HX 102
$$

AZZ503-504-507>509-200000-
SOUTHEAST ARIZONA

CITY           SKY/WX    TMP DP  RH WIND       PRES   REMARKS
TUCSON         SUNNY    N/A N/A N/A W15       29.95
DAVIS-MONTHAN    N/A    N/A N/A N/A W14       29.94F
RYAN FIELD     SUNNY     93  45  18 SW12      29.94F
NOGALES        CLOUDY    89  52  28 VRB7      30.04F
SIERRA VISTA   CLOUDY    81  48  32 W14       30.10S
DOUGLAS        LGT RAIN  72  60  66 E8        30.06F
SAFFORD        PTSUNNY   96  39  13 SW9       29.89F
$$

AZZ532-200000-
SOUTHWEST ARIZONA

CITY           SKY/WX    TMP DP  RH WIND       PRES   REMARKS
YUMA           SUNNY    105  50  15 VRB5G17   29.73F HX 102
$$

CAZ041-043-047-048-061-525>527-560>570-200000-
SOUTHERN CALIFORNIA

CITY           SKY/WX    TMP DP  RH WIND       PRES   REMARKS
DOWNTOWN L.A.  SUNNY     77  60  55 VRB3      29.89F
L.A. AIRPORT   MOSUNNY   72  61  68 W15       29.91F
SAN DIEGO      MOSUNNY   73  61  65 W9        29.93F
BURBANK        SUNNY     82  57  42 S13       29.89F
ONTARIO        MOSUNNY   88  57  34 W12G21    29.88F
RIVERSIDE      SUNNY     86  60  41 W14       29.88F
PALM SPRINGS   SUNNY    105  50  15 N6        29.76F HX 102
EL CENTRO NAS  SUNNY    105  42  11 CALM      29.72F HX 100
IMPERIAL       MOSUNNY  105  54  18 W7        29.70F HX 103
BLYTHE         SUNNY    105  48  14 S12       29.74F HX 101
NEEDLES        SUNNY    108  36   8 MISG      29.75F HX 101
$$

NVZ020-UTZ003-200000-
SOUTHERN NEVADA-UTAH

CITY           SKY/WX    TMP DP  RH WIND       PRES   REMARKS
LAS VEGAS      MOSUNNY  102  41  12 SE12G17   29.82F
SALT LAKE CITY MOSUNNY   94  34  12 S7        29.97F
$$

NMZ009-TXZ055-200000-
NEW MEXICO-WEST TEXAS

CITY           SKY/WX    TMP DP  RH WIND       PRES   REMARKS
ALBUQUERQUE    PTSUNNY   87  44  22 E31       30.08F
EL PASO        PTSUNNY   88  58  36 SE5       30.01F
$$


........................KEY........................
SKY/WX - SKY CONDITION/WEATHER
TMP    - TEMPERATURE IN FAHRENHEIT
DP     - DEW POINT IN FAHRENHEIT
RH     - RELATIVE HUMIDITY IN PERCENT
WIND   - DIRECTION AND SPEED IN MILES PER HOUR (MPH)
VRB    - VARIABLE WIND DIRECTION
PRES   - MEAN SEA LEVEL PRESSURE IN INCHES OF MERCURY
         F - FALLING PRESSURE   R - RISING PRESSURE
         S - STEADY PRESSURE
VSB    - VISIBILITY IN MILES
HX     - HEAT INDEX IN FAHRENHEIT
WCI    - WIND CHILL INDEX IN FAHRENHEIT
TC     - TEMPERATURE IN CELSIUS WHICH IS ALSO KNOWN AS
         TEMPERATURE IN CENTIGRADE
AFB    - AIR FORCE BASE
         LUKE AFB IS LUKE AIR FORCE BASE
         DAVIS-MONTHAN IS DAVIS-MONTHAN AIR FORCE BASE
NAS    - NAVAL AIR STATION
         EL CENTRO NAS IS EL CENTRO NAVAL AIR STATION
N/A    - NOT AVAILABLE





USA.gov is the U.S. government's official web portal to all federal, state and local government web resources and services.